KZ1X Weather Reports


Display with metric or nautical units.
time (UTC)temp
F
wind
direction
speed
MPH
gust
MPH
rain 1hr
in
rain 24hr
in
rain mn
in
humidity
%
barometer
mb
20260508040048 51 0 0.0 0.0 0.00 0.42 0.00 97 1013.6
20260508034540 51 0 0.0 0.0 0.00 0.44 0.42 97 1013.5
20260508033039 52 0 0.0 0.0 0.00 0.44 0.42 97 1013.1
20260508031550 52 0 0.0 0.0 0.00 0.44 0.42 97 1013.1
20260508030054 53 0 0.0 0.0 0.00 0.44 0.42 97 1013.3
20260508024542 53 0 0.0 0.0 0.00 0.46 0.42 97 1013.2
20260508023045 53 0 0.0 0.0 0.00 0.46 0.42 97 1013.0
20260508021538 53 0 0.0 0.0 0.00 0.46 0.42 97 1012.9
20260508020037 54 0 0.0 0.0 0.00 0.46 0.42 97 1012.6
20260508014537 54 0 0.0 0.0 0.00 0.46 0.42 97 1012.6
20260508013037 54 0 0.0 0.0 0.00 0.46 0.42 97 1012.0
20260508011549 54 0 0.0 1.0 0.00 0.46 0.42 97 1011.5
20260508010042 54 0 0.0 0.0 0.00 0.46 0.42 97 1011.8
20260508004539 54 0 0.0 0.0 0.00 0.46 0.42 97 1011.7
20260508003038 54 0 0.0 0.0 0.00 0.46 0.42 96 1011.6
20260508001540 54 0 0.0 1.0 0.00 0.46 0.42 96 1011.4
20260508000037 55 157 0.0 0.0 0.00 0.46 0.42 96 1011.4
20260507234542 55 0 0.0 2.0 0.00 0.46 0.42 96 1011.0
20260507233040 55 110 0.0 2.0 0.00 0.46 0.42 96 1010.9
20260507231550 55 0 0.0 4.0 0.00 0.46 0.42 96 1010.6
20260507230040 55 0 0.0 1.0 0.00 0.46 0.42 96 1010.5
20260507224551 55 0 0.0 3.0 0.00 0.46 0.42 96 1010.6
20260507223048 55 261 0.0 6.0 0.00 0.46 0.42 96 1010.5
20260507221543 55 37 0.0 6.0 0.00 0.46 0.42 96 1010.0
20260507220040 56 77 0.0 5.0 0.00 0.45 0.41 95 1010.4
20260507214540 56 0 0.0 4.0 0.00 0.45 0.41 95 1010.4
20260507213041 56 42 0.0 2.0 0.00 0.45 0.41 95 1010.1
20260507211537 56 0 0.0 2.0 0.00 0.45 0.41 95 1010.3
20260507210108 56 0 0.0 9.0 0.00 0.45 0.41 94 1010.2
20260507204541 57 0 0.0 3.0 0.00 0.45 0.41 95 1010.1
20260507203037 57 218 0.0 6.0 0.00 0.45 0.41 95 1009.7
20260507201538 57 0 0.0 2.0 0.00 0.45 0.41 96 1009.6
20260507200051 58 129 0.0 3.0 0.00 0.45 0.41 96 1009.6
20260507194537 58 70 0.0 2.0 0.00 0.46 0.41 96 1009.5
20260507193105 58 0 0.0 3.0 0.00 0.46 0.41 96 1009.5
20260507191552 58 0 0.0 2.0 0.00 0.46 0.41 96 1009.7
20260507190040 58 0 0.0 2.0 0.00 0.46 0.41 96 1009.9
20260507184537 57 32 1.0 5.0 0.00 0.59 0.41 96 1009.7
20260507183040 57 53 0.0 6.0 0.04 0.59 0.41 96 1009.5
20260507181537 58 223 0.0 2.0 0.04 0.59 0.40 96 1010.0
20260507180044 59 106 0.0 6.0 0.04 0.59 0.40 96 1009.3
20260507174541 60 224 0.0 3.0 0.04 0.59 0.40 95 1009.7
20260507173040 61 0 0.0 4.0 0.01 0.55 0.37 94 1009.7
20260507171536 66 70 0.0 2.0 0.01 0.54 0.36 96 1009.0
20260507170040 67 0 0.0 1.0 0.02 0.54 0.36 98 1008.4
20260507164538 67 0 0.0 0.0 0.03 0.54 0.36 98 1008.5
20260507163042 67 0 0.0 0.0 0.03 0.53 0.35 98 1008.7
20260507161539 66 0 0.0 2.0 0.03 0.52 0.34 98 1009.1
20260507160057 67 0 0.0 2.0 0.03 0.51 0.33 98 1010.0
20260507154540 67 0 0.0 1.0 0.03 0.50 0.32 99 1009.9
20260507153037 67 0 0.0 0.0 0.03 0.49 0.31 99 1009.8
20260507151544 67 0 0.0 2.0 0.04 0.49 0.31 99 1009.4
20260507150041 67 0 0.0 0.0 0.04 0.48 0.30 99 1009.6
20260507144550 67 0 0.0 0.0 0.03 0.46 0.28 99 1009.7
20260507143038 67 0 0.0 0.0 0.03 0.45 0.27 99 1009.1
20260507141537 66 0 0.0 0.0 0.03 0.44 0.26 99 1009.6
20260507140037 66 0 0.0 0.0 0.03 0.44 0.25 99 1009.5
20260507134549 66 0 0.0 1.0 0.02 0.43 0.25 99 1009.6
20260507133047 66 0 0.0 1.0 0.02 0.42 0.24 99 1010.4
20260507131537 65 0 0.0 0.0 0.01 0.41 0.23 99 1010.5
20260507130041 65 0 0.0 0.0 0.00 0.40 0.22 99 1010.1
20260507124538 65 0 0.0 0.0 0.00 0.40 0.22 99 1010.2
20260507123043 65 0 0.0 0.0 0.00 0.40 0.22 99 1010.4
20260507121538 65 0 0.0 0.0 0.00 0.40 0.22 99 1010.1
20260507120042 65 0 0.0 0.0 0.01 0.40 0.22 99 1010.0
20260507114543 64 0 0.0 0.0 0.01 0.40 0.22 98 1010.3
20260507113038 64 0 0.0 0.0 0.01 0.40 0.22 98 1010.0
20260507111545 64 0 0.0 0.0 0.02 0.40 0.22 98 1010.6
20260507110038 64 0 0.0 0.0 0.01 0.38 0.20 98 1010.6
20260507104536 64 0 0.0 0.0 0.01 0.38 0.20 98 1010.5
20260507103042 64 0 0.0 0.0 0.01 0.38 0.20 98 1010.0
20260507101546 64 0 0.0 0.0 0.00 0.37 0.19 98 1010.2
20260507100041 64 0 0.0 0.0 0.00 0.37 0.18 98 1010.0
20260507094541 64 0 0.0 0.0 0.00 0.37 0.18 98 1010.0
20260507093043 64 0 0.0 0.0 0.00 0.37 0.18 98 1010.0
20260507091538 64 0 0.0 0.0 0.00 0.37 0.18 98 1010.2
20260507090042 64 0 0.0 0.0 0.00 0.37 0.18 98 1010.1
20260507084543 64 0 0.0 0.0 0.00 0.36 0.18 98 1010.7
20260507083041 64 0 0.0 0.0 0.00 0.36 0.18 98 1010.2
20260507081538 64 0 0.0 0.0 0.00 0.36 0.18 98 1011.0
20260507080039 64 0 0.0 0.0 0.00 0.36 0.18 98 1011.2
20260507074536 64 0 0.0 0.0 0.00 0.36 0.18 98 1010.4
20260507073035 64 0 0.0 0.0 0.00 0.36 0.18 98 1010.8
20260507071557 64 0 0.0 0.0 0.00 0.35 0.17 98 1011.4
20260507070048 64 0 0.0 1.0 0.00 0.35 0.17 98 1011.4
20260507064555 64 0 0.0 0.0 0.00 0.35 0.17 98 1011.2
20260507063040 64 0 0.0 0.0 0.00 0.35 0.17 98 1011.8
20260507061537 64 0 0.0 0.0 0.00 0.35 0.17 98 1012.1
20260507060040 64 0 0.0 0.0 0.00 0.35 0.17 98 1011.6
20260507054540 64 0 0.0 0.0 0.03 0.35 0.17 98 1012.1
20260507053045 64 0 0.0 1.0 0.06 0.34 0.16 98 1012.2
20260507051542 64 0 0.0 2.0 0.09 0.34 0.16 98 1012.3
20260507050041 64 0 1.0 3.0 0.16 0.34 0.16 97 1010.9
20260507044540 65 220 1.0 2.0 0.14 0.31 0.13 97 1011.6
20260507043044 65 141 0.0 1.0 0.11 0.28 0.10 97 1012.5
20260507041551 65 0 0.0 2.0 0.08 0.24 0.06 97 1013.5